Regional Weather Roundup
Issued by NWS

Home | Current Version | Previous Version | Graphics & Text | Print | Product List | Glossary Off
Versions: 1 2 3 4 5 6 7 8 9 10 11 12 13 14 15 16 17 18 19 20 21 22 23 24 25 26 27 28 29 30 31 32 33 34 35 36 37 38 39 40 41 42 43 44 45 46 47 48 49 50

410
ASUS43 KTOP 202059
RWRKS

WEATHER ROUNDUP FOR KANSAS
NATIONAL WEATHER SERVICE GOODLAND KS
300 PM CST TUE FEB 20 2018

NOTE:  "FAIR" INDICATES FEW OR NO CLOUDS BELOW 12,000 FEET WITH NO
SIGNIFICANT WEATHER AND/OR OBSTRUCTIONS TO VISIBILITY.

KSZ001>006-013>018-027>032-041>047-202200-
NORTHWEST KANSAS

CITY           SKY/WX    TMP DP  RH WIND       PRES   REMARKS
GOODLAND       FAIR      17   3  54 N16G25    30.07R WCI   2
HAYS           FAIR      27   7  42 N22       30.13F WCI  13
HILL CITY      FAIR      25   4  40 N17       30.17R WCI  12
RUSSELL        FAIR      27  10  49 N18G26    30.13S WCI  14
$$

KSZ061>065-074>080-084>089-202200-
SOUTHWEST KANSAS

CITY           SKY/WX    TMP DP  RH WIND       PRES   REMARKS
DODGE CITY     FAIR      30   5  34 N17G31    30.09R WCI  18
GARDEN CITY    FAIR      28   1  31 NE17G26   30.08R WCI  16
LIBERAL        FAIR      34   2  25 N16G22    30.07R WCI  24
$$

KSZ066>073-081>083-090>101-202200-
SOUTHEAST KANSAS

CITY           SKY/WX    TMP DP  RH WIND       PRES   REMARKS
CHANUTE        CLOUDY    27  24  89 N16G22    30.10R WCI  15
COFFEYVILLE    FRZ RAIN  31  30  96 NW17G23   30.10R FOG     WCI  19
HUTCHINSON     CLOUDY    25  20  81 N15       30.13R WCI  13
MEDICINE LODGE   N/A     29  19  66 N20G25    30.12R WCI  16
NEWTON         CLOUDY    22  18  85 N20       30.13R WCI   7
PARSONS        FRZ RAIN  29  28  96 N15       30.11R FOG     WCI  18
WICHITA INTL   CLOUDY    25  20  81 N17       30.13R WCI  12
WICHITA JABRA  CLOUDY    24  21  88 N22       30.11S WCI   9
WINFIELD       CLOUDY    25  23  92 N18       30.13R WCI  11
$$

KSZ007>012-019>026-033>040-048>060-102>105-202200-
NORTHEAST KANSAS

CITY           SKY/WX    TMP DP  RH WIND       PRES   REMARKS
CONCORDIA      FAIR      24  14  65 N16G26    30.16R WCI  11
EMPORIA        CLOUDY    24  19  81 N15       30.13R WCI  11
LAWRENCE       CLOUDY    26  22  84 NW16      30.14R WCI  14
MANHATTAN      CLOUDY    25  15  66 NW10G18   30.17R WCI  15
OLATHE IND     CLOUDY    25  22  88 NW17      30.12R WCI  12
OLATHE EXE     CLOUDY    24  21  88 N12       30.11R WCI  13
SALINA         PTSUNNY   26  18  71 N18       30.16R WCI  13
TOPEKA BILLARD CLOUDY    25  20  81 NW14      30.15R WCI  13
TOPEKA FORBES  CLOUDY    25  20  81 N15       30.13R WCI  13
$$




USA.gov is the U.S. government's official web portal to all federal, state and local government web resources and services.